Starlink 32489

operational
NORAD ID: 61893 Int'l Des: 2024-204 Owner: SPXS Country: US Constellation: starlink
LEOCIRCULAR

关于 Starlink 32489

正在加载描述...

实时位置

正在加载3D地球...

即将过境

高度历史

Altitude vs Time

uPlot chart will show altitude changes over time

两行轨道根数

1 61893U 24204V 25350.17009110 .00000801 00000-0 39177-4 0 9993
2 61893 53.1601 154.7864 0001094 95.6279 264.4847 15.30193242 62308
Epoch: Dec 16, 2025 • Age: 20 hours

当前状态

高度 493.3 km
速度 7.62 km/s
星下点 -50.32°S, 0.97°W
发射日期 Nov 9, 2024
运行时间 1.1 years
类型 internet

技术详情

分类 Payload
质量 730.00 kg
干质量 700.00 kg
总质量 730.00 kg
长度 0.30 m
直径 4.10 m
跨度 29.00 m
形状 Box + pan
制造商 SPXS
平台类型 Starlink V2M
阶段状态 In Orbit
所有者/国家 SPXS/US

大型星座

Loading constellations...